Weather Service Report


614 
ASUS43 KTOP 200908
RWRKS 

WEATHER ROUNDUP FOR KANSAS
NATIONAL WEATHER SERVICE GOODLAND KS
300 AM CST SAT DEC 20 2014

NOTE:  "FAIR" INDICATES FEW OR NO CLOUDS BELOW 12,000 FEET WITH NO
SIGNIFICANT WEATHER AND/OR OBSTRUCTIONS TO VISIBILITY.

KSZ001>006-013>018-027>032-041>047-201000-
NORTHWEST KANSAS
  
CITY           SKY/WX    TMP DP  RH WIND       PRES   REMARKS
GOODLAND       PTCLDY    30  27  88 W9        30.03R                  
HAYS           CLEAR     28  19  69 SW7       30.07R                  
HILL CITY      PTCLDY    31  26  82 SW6       30.05S                  
RUSSELL        PTCLDY    31  30  96 S14       30.07R WCI  21          
$$

KSZ061>065-074>080-084>089-201000-
SOUTHWEST KANSAS
  
CITY           SKY/WX    TMP DP  RH WIND       PRES   REMARKS
DODGE CITY     CLEAR     31  28  89 SW12      30.09R FOG     WCI  22  
ELKHART          N/A    N/A N/A N/A MISG        N/A                   
GARDEN CITY    PTCLDY    26  25  96 SW5       30.06F FOG              
GREAT BEND     CLEAR     30  27  86 SW7       30.11S                  
LIBERAL        CLEAR     30  25  80 SW10      30.11S WCI  21          
PRATT          FOG       30  30 100 S5        30.13S VSB 1/4          
$$

KSZ066>073-081>083-090>101-201000-
SOUTHEAST KANSAS
  
CITY           SKY/WX    TMP DP  RH WIND       PRES   REMARKS
CHANUTE        CLOUDY    35  34  96 S3        30.22S FOG              
COFFEYVILLE    FOG       34  33  96 NE5       30.22F VSB 1/2          
HUTCHINSON     CLEAR     32  30  92 S9        30.13F FOG              
MEDICINE LODGE   N/A     34  34 100 S5        30.14S                  
NEWTON         CLEAR     34  28  80 S10       30.15S WCI  26          
PARSONS        CLOUDY    35  35 100 CALM      30.23S FOG              
WICHITA INTL   CLEAR     35  31  85 S8        30.16S                  
WICHITA JABRA  PTCLDY    33  31  92 S7        30.15F                  
WICHITA MCCONL PTCLDY    34  32  92 S7        30.16F                  
WINFIELD       CLOUDY    37  34  89 SE3       30.19S                  
$$

KSZ007>012-019>026-033>040-048>060-102>105-201000-
NORTHEAST KANSAS
  
CITY           SKY/WX    TMP DP  RH WIND       PRES   REMARKS
CONCORDIA      CLEAR     28  28 100 S7        30.08S FOG              
EMPORIA        CLOUDY    33  31  92 S10       30.16F WCI  25          
LAWRENCE       CLOUDY    33  29  85 S5        30.20S                  
MANHATTAN      CLEAR     30  28  92 S5        30.14S FOG              
MARYSVILLE     PTCLDY    32  30  93 S10       30.10F FOG     WCI  24  
OLATHE IND     CLOUDY    32  31  96 SW8       30.20S                  
OLATHE EXE     CLOUDY    33  32  96 SW6       30.19R FOG              
SALINA         PTCLDY    33  31  92 S5        30.12R FOG              
TOPEKA BILLARD CLOUDY    35  30  82 S6        30.19R                  
TOPEKA FORBES  CLOUDY    34  30  85 S9        30.17S                  
$$

Return to Home page


Western Regional Climate Center, wrcc@dri.edu